Location: Eppes
(49.5573°N, 3.7375°E)
Time: 06:09:43
(UTC+00:00)

Daily predictions for brighter satellites

Satellite Brightness Start Highest point End
(mag) Time Altitude Azimuth Time Altitude Azimuth Time Altitude Azimuth
STARLINK-1187 3.5 18:52:05 10° WNW 18:55:12 51° NNE 18:58:18 10° E
STARLINK-1240 4.3 18:51:49 10° WNW 18:55:52 51° N 18:59:57 10° E
STARLINK-1199 3.5 18:52:57 10° WNW 18:56:01 49° NNE 18:59:06 10° E
STARLINK-1191 3.5 18:53:25 10° WNW 18:56:29 50° N 18:59:34 10° E
Cosmos 1953 Rocket 4.2 18:52:27 10° N 18:56:39 38° ENE 19:00:51 10° SE
STARLINK-1210 3.5 18:53:51 10° WNW 18:56:56 50° NNE 19:00:01 10° E
STARLINK-1221 3.5 18:54:18 10° WNW 18:57:24 50° NNE 19:00:29 10° E
SJ-6B 3.3 18:53:32 10° SE 18:57:27 45° ENE 19:01:25 10° N
STARLINK-1219 3.5 18:54:45 10° WNW 18:57:50 50° NNE 19:00:55 10° E
Cosmos 2074 Rocket 4.1 18:51:56 10° N 18:58:13 66° ENE 19:04:28 10° SSE
STARLINK-1222 3.5 18:55:13 10° WNW 18:58:18 50° NNE 19:01:23 10° E
STARLINK-60 4.3 18:55:51 10° SSW 18:58:31 23° SE 19:01:10 10° E
STARLINK-1211 3.5 18:55:40 10° WNW 18:58:45 50° NNE 19:01:50 10° E
STARLINK-1214 3.5 18:56:07 10° WNW 18:59:11 50° NNE 19:02:16 10° E
ATLAS 5 CENTAUR R/B 2.9 18:56:30 10° SSE 18:59:25 18° ESE 19:02:32 10° ENE
Cosmos 1606 Rocket 4.1 18:55:23 10° SSE 18:59:29 38° E 19:03:38 10° NNE
STARLINK-1245 3.4 18:56:37 10° WNW 18:59:41 50° NNE 19:02:44 10° E
STARLINK-1238 3.5 18:57:01 10° WNW 19:00:06 51° NNE 19:03:11 10° E
STARLINK-1216 4.3 18:56:49 10° WNW 19:00:54 52° N 19:04:57 10° E
STARLINK-1205 3.4 18:57:58 10° WNW 19:01:02 51° NNE 19:04:05 10° E
ADEOS Rocket 3.6 18:54:41 10° N 19:01:07 65° WNW 19:06:52 10° SSW
STARLINK-1204 3.4 18:58:24 10° WNW 19:01:28 51° NNE 19:04:32 10° E
Meteor 1-16 Rocket 4.3 18:58:44 10° S 19:03:59 53° E 19:09:25 10° NNE
Cosmos 1818 3.7 18:58:53 10° SSW 19:04:11 57° ESE 19:09:32 10° NE
STARLINK-1237 4.2 19:01:48 10° WNW 19:05:52 52° N 19:09:56 10° E
Abrixas rocket 2.0 19:05:43 10° W 19:08:39 70° S 19:11:30 11° E
Cosmos 1943 Rocket 3.7 19:05:38 10° NW 19:10:41 37° WSW 19:15:45 10° S
STARLINK-1202 4.2 19:06:48 10° WNW 19:10:53 53° N 19:14:57 10° E
NOSS 3-4 (A) 3.9 19:05:31 10° NW 19:12:26 80° NE 19:20:05 10° SE
NOSS 3-4 (C) 3.9 19:05:38 10° NW 19:12:33 80° NE 19:20:11 10° SE
SL-4 R/B 1.8 19:15:45 10° SW 19:19:03 49° SSE 19:22:23 10° ENE
Cosmos 1300 4.3 19:17:23 11° ESE 19:19:25 16° E 19:21:50 10° NE
Cosmos 2369 Rocket 3.5 19:15:02 10° NW 19:20:20 41° WSW 19:25:35 10° S
STARLINK-1246 4.1 19:16:48 10° WNW 19:20:53 54° N 19:24:53 11° E
STARLINK-1203 4.1 19:17:26 10° WNW 19:21:35 56° N 19:25:34 11° E
MOS 1 Rocket 4.3 19:17:28 10° NNE 19:22:18 33° E 19:27:10 10° SSE
NOSS 3-3 (A) 4.2 19:16:45 10° SW 19:22:42 80° NW 19:29:31 10° NE
STARLINK-1201 3.3 19:19:31 10° WNW 19:22:45 61° NNE 19:25:27 14° E
NOSS 3-3 (C) 4.2 19:16:50 10° SW 19:22:47 81° NW 19:29:37 10° NE
MOS 1 4.4 19:17:25 10° SSE 19:23:05 85° WSW 19:28:49 10° NNW
Cosmos 1340 Rocket 3.5 19:20:11 10° SSE 19:23:49 33° E 19:27:27 10° NNE
CZ-2C R/B 4.1 19:20:20 10° NNE 19:24:51 43° E 19:29:15 10° S
Cosmos 1703 3.2 19:21:03 10° N 19:25:02 78° E 19:29:00 10° SSE
STARLINK-67 2.4 19:22:51 10° WNW 19:25:25 75° SSW 19:27:10 18° ESE
Cosmos 1328 3.7 19:21:40 10° N 19:25:41 76° E 19:29:41 10° SSE
STARLINK-1224 4.1 19:21:47 10° WNW 19:25:52 55° N 19:29:39 12° E
H-2A R/B 2.4 19:21:39 10° S 19:26:51 70° WSW 19:31:55 10° NNW
CZ-2C R/B 3.1 19:24:45 10° S 19:29:36 72° WSW 19:34:22 10° NNW
STARLINK-1225 4.1 19:26:48 10° WNW 19:30:53 56° N 19:34:27 13° E
Cosmos 1437 4.0 19:28:10 10° NNW 19:31:02 39° W 19:33:53 10° SSW
STARLINK-1230 4.0 19:31:47 10° WNW 19:35:53 58° N 19:39:14 15° E
STARLINK-52 4.3 19:34:36 10° S 19:37:04 20° SE 19:37:29 20° SE
Cosmos 1908 3.1 19:33:36 10° S 19:37:26 72° E 19:41:21 10° NNE
SL-08 RB Rocket 3.8 19:33:01 10° SSE 19:37:35 86° WSW 19:42:15 10° NNW
STARLINK-1243 4.0 19:36:46 10° WNW 19:40:52 59° N 19:44:01 16° E
Resurs 1-3 3.6 19:37:17 10° SSE 19:41:38 66° ENE 19:46:01 10° N
USA 234 4.1 19:37:02 10° ENE 19:42:18 25° SE 19:47:32 10° S
SeaSat 1 3.7 19:38:59 10° NNE 19:43:42 45° NW 19:48:22 10° WSW
ATLAS 2AS CENTAUR R/B 3.1 19:37:09 10° NW 19:44:46 71° SW 19:51:22 12° SSE
STARLINK-1228 2.7 19:42:46 10° WNW 19:45:43 78° SSW 19:47:07 28° ESE
STARLINK-1236 4.0 19:41:45 10° WNW 19:45:51 61° NNE 19:48:47 18° E
Cosmos 1943 3.7 19:41:55 10° SW 19:47:33 65° WNW 19:53:14 10° NNE
Ariane Rocket 4.3 19:43:07 10° SSW 19:47:52 40° W 19:52:39 10° NNW
Cosmos 1953 4.2 19:45:30 10° SW 19:49:07 33° WNW 19:52:46 10° N
CZ-4C R/B 4.1 19:44:19 10° NW 19:49:57 30° NNE 19:56:25 10° ENE
Cosmos 1140 Rocket 3.5 19:47:11 10° S 19:52:14 55° ESE 19:57:18 10° NNE
Cosmos 1726 3.7 19:49:08 10° SW 19:52:38 38° WNW 19:56:10 10° N
Cosmos 2341 Rocket 4.1 19:47:58 10° N 19:54:19 63° ENE 19:59:56 14° SSE
STARLINK-1269 3.9 19:51:42 10° WNW 19:55:50 64° NNE 19:58:20 23° E
Meteor 1-11 4.4 19:52:23 10° NNW 19:58:10 75° W 20:03:49 10° S
Cosmos 1190 Rocket 3.9 19:53:23 10° SSW 19:58:39 71° ESE 20:03:56 10° NNE
Cosmos 2058 Rocket 3.0 19:54:52 10° S 19:59:22 79° E 20:03:54 10° NNE
Spot 2 Rocket 4.0 19:56:54 22° SE 19:59:46 42° ENE 20:04:34 10° N
DMSP B5D2-2 4.0 19:54:58 10° NNE 20:00:12 69° ESE 20:05:25 10° S
STARLINK-1200 3.8 19:56:41 10° WNW 20:00:50 66° NNE 20:03:07 25° E
CZ-2C R/B 2.6 19:55:44 10° NNE 20:00:52 60° E 20:06:00 10° S
Cosmos 1697 Rocket 4.2 19:56:26 10° N 20:00:54 23° NE 20:04:03 15° E
COSMOS 2455 2.8 19:54:54 10° NW 20:00:59 87° NE 20:05:11 21° SE
MetOp-A 4.3 19:56:22 10° S 20:01:43 75° WSW 20:07:06 10° NNW
Cosmos 614 Rocket 4.2 19:59:24 10° SSW 20:04:38 77° WNW 20:09:52 10° NNE
STARLINK-1192 3.8 20:01:41 10° WNW 20:05:50 69° NNE 20:07:55 28° E
Cosmos 1726 Rocket 4.2 20:03:00 10° SSW 20:07:21 58° WNW 20:11:46 10° N
IGS 5A 4.4 20:06:53 26° E 20:08:00 31° ENE 20:11:40 10° N
ARGOS 4.5 20:03:15 10° SSW 20:08:16 39° W 20:13:20 10° NNW
Iridium 2 4.3 20:07:50 33° ESE 20:08:31 36° E 20:12:03 10° NNE
Cosmos 2218 Rocket 4.2 20:02:34 10° N 20:08:38 51° ENE 20:12:17 24° SE
STARLINK-1244 3.7 20:06:39 10° WNW 20:10:48 72° NNE 20:12:41 31° E
ERBS 2.9 20:08:01 10° NW 20:11:19 47° NNE 20:12:22 34° ENE
Resurs 01 Rocket 1.6 20:08:29 19° SSE 20:11:36 88° WSW 20:16:04 10° NNW
SL-24 R/B 4.2 20:07:53 10° N 20:12:01 65° WNW 20:15:45 10° SSW
BREEZE-M DEB (TANK) 1.2 20:11:09 10° W 20:14:54 83° S 20:15:10 67° E
ATLAS CENTAUR R/B 3.3 20:12:17 10° NNW 20:15:02 18° NNE 20:16:45 14° ENE
STARLINK-1138 3.7 20:11:38 10° WNW 20:15:48 74° NNE 20:17:28 35° E
Cosmos 468 Rocket 4.4 20:10:58 10° NNW 20:15:57 45° ENE 20:18:01 30° ESE
STARLINK-1209 3.2 20:13:55 10° WNW 20:16:43 45° SSW 20:16:57 44° SSW
Cosmos 921 Rocket 3.3 20:15:03 10° NNW 20:19:11 59° WSW 20:21:45 22° S
STARLINK-1234 3.2 20:16:34 10° WNW 20:19:31 47° SSW 20:19:47 45° SSW
STARLINK-1233 2.9 20:16:27 10° WNW 20:19:35 62° SSW 20:19:56 56° S
STARLINK-1212 2.9 20:16:56 10° WNW 20:20:01 61° SSW 20:20:21 56° S
STARLINK-1105 3.0 20:17:22 10° WNW 20:20:29 61° SSW 20:20:48 56° S
STARLINK-1143 3.6 20:16:37 10° WNW 20:20:46 77° NNE 20:22:15 39° E
STARLINK-1206 2.9 20:17:51 10° WNW 20:20:56 60° SSW 20:21:13 56° S
STARLINK-1247 2.9 20:18:17 10° WNW 20:21:23 60° SSW 20:21:39 56° S
STARLINK-1227 3.0 20:18:42 10° WNW 20:21:49 59° SSW 20:22:06 56° S
STARLINK-1218 3.0 20:19:12 10° WNW 20:22:18 59° SSW 20:22:31 56° S
STARLINK-1226 3.0 20:19:39 10° WNW 20:22:44 58° SSW 20:22:58 56° S
STARLINK-1254 3.0 20:20:04 10° WNW 20:23:10 58° SSW 20:23:24 56° S
STARLINK-1215 3.0 20:20:34 10° WNW 20:23:38 57° SSW 20:23:49 56° S
STARLINK-1231 3.0 20:21:00 10° WNW 20:24:05 57° SSW 20:24:15 56° SSW
USA 245 4.5 20:21:27 28° SE 20:24:38 65° ENE 20:31:00 10° N
STARLINK-1232 3.0 20:21:56 10° WNW 20:25:00 56° SSW 20:25:08 55° SSW
SL-8 Rocket 4.0 20:18:45 10° N 20:25:07 77° E 20:29:12 23° SSE
STARLINK-1217 3.1 20:22:21 10° WNW 20:25:26 56° SSW 20:25:33 55° SSW
STARLINK-1241 3.6 20:21:38 10° WNW 20:25:47 81° NNE 20:27:04 43° ESE
STARLINK-1208 3.1 20:22:46 10° WNW 20:25:52 56° SSW 20:26:00 55° SSW
BREEZE-M DEB (TANK) 4.2 20:21:32 10° WNW 20:25:56 31° SW 20:26:31 29° SSW
Cosmos 2181 Rocket 3.9 20:20:34 14° S 20:26:00 65° E 20:32:06 10° NNE
STARLINK-1229 3.1 20:23:15 10° WNW 20:26:20 55° SSW 20:26:25 55° SSW
Cosmos 407 Rocket 4.0 20:21:16 10° SW 20:26:20 61° WNW 20:31:27 10° NNE
STARLINK-1271 3.1 20:23:42 10° WNW 20:26:47 55° SSW 20:26:52 54° SSW
SL-24 R/B - RUBIN 2 4.4 20:21:31 10° SW 20:27:13 83° NW 20:33:41 10° NE
STARLINK-1270 3.1 20:24:11 10° WNW 20:27:15 54° SSW 20:27:17 54° SSW
Cosmos 676 Rocket 3.9 20:22:09 10° SSW 20:27:25 76° ESE 20:32:40 10° NNE
STARLINK-1154 3.1 20:24:38 10° WNW 20:27:41 54° SSW 20:27:43 54° SSW
Cosmos 1455 4.2 20:30:11 16° NE 20:30:11 16° NE 20:31:26 10° NE
STARLINK-1197 3.2 20:25:32 10° WNW 20:28:35 53° SSW 20:28:35 53° SSW
ERS-1 Rocket 3.6 20:27:20 32° ESE 20:28:44 39° ENE 20:33:24 10° N
Cosmos 1656 4.2 20:23:17 10° NNW 20:28:48 47° NE 20:30:57 32° ESE
STARLINK-1189 3.2 20:25:58 10° WNW 20:29:01 52° SSW 20:29:01 52° SSW
STARLINK-1198 3.2 20:26:26 10° WNW 20:29:27 52° SSW 20:29:27 52° SSW
Cosmos 1461 4.2 20:25:20 10° NW 20:29:32 38° WSW 20:32:00 21° S
STARLINK-1188 3.2 20:26:53 10° WNW 20:29:53 52° SW 20:29:53 52° SW
Cosmos 1980 Rocket 3.8 20:25:48 10° N 20:30:05 22° NE 20:32:34 17° ENE
Cosmos 1812 Rocket 3.7 20:29:45 44° SE 20:30:30 50° E 20:34:43 10° NNE
STARLINK-1235 3.6 20:27:34 10° WNW 20:30:32 42° SW 20:30:32 42° SW
STARLINK-1239 3.5 20:26:34 10° WNW 20:30:44 84° NNE 20:31:48 49° ESE
STARLINK-1187 3.4 20:27:58 10° WNW 20:30:59 46° SW 20:30:59 46° SW
Cosmos 1892 3.0 20:27:59 10° N 20:31:47 47° ENE 20:32:00 46° E
STARLINK-1199 3.3 20:28:49 10° WNW 20:31:48 50° SW 20:31:48 50° SW
STARLINK-1191 3.3 20:29:17 10° WNW 20:32:15 49° SW 20:32:15 49° SW
STARLINK-29 3.9 20:29:13 10° SW 20:31:20 36° SSW 20:31:20 36° SSW
STARLINK-1210 3.4 20:29:43 10° WNW 20:32:40 49° SW 20:32:40 49° SW
MINOTAUR IV R/B 4.4 20:28:40 10° SSW 20:33:09 81° ESE 20:37:41 10° NNE
STARLINK-1221 3.4 20:30:11 10° WNW 20:33:07 49° SW 20:33:07 49° SW
STARLINK-1219 3.4 20:30:37 10° WNW 20:33:32 48° SW 20:33:32 48° SW
STARLINK-1222 3.4 20:31:05 10° WNW 20:33:58 48° SW 20:33:58 48° SW
STARLINK-60 3.0 20:31:18 10° WSW 20:34:35 80° NNW 20:34:55 69° NE
STARLINK-1211 3.5 20:31:32 10° WNW 20:34:24 47° SW 20:34:24 47° SW
SPOT 5 3.4 20:34:13 32° ENE 20:34:39 33° ENE 20:38:32 10° N
STARLINK-1214 3.5 20:31:59 10° WNW 20:34:50 47° SW 20:34:50 47° SW
STARLINK-1245 3.5 20:32:29 10° WNW 20:35:16 45° SW 20:35:16 45° SW
STARLINK-1240 3.5 20:31:34 10° WNW 20:35:44 88° NNE 20:36:36 55° ESE
STARLINK-1238 3.5 20:32:54 10° WNW 20:35:43 46° SW 20:35:43 46° SW
STARLINK-1205 3.6 20:33:50 10° WNW 20:36:34 44° SW 20:36:34 44° SW
Cosmos 220 Rocket 3.9 20:32:45 10° NNW 20:37:06 86° ENE 20:38:14 49° SSE
STARLINK-1204 3.6 20:34:17 10° WNW 20:36:59 43° SW 20:36:59 43° SW
Cosmos 2366 rocket 3.9 20:31:49 10° N 20:38:00 76° E 20:41:06 31° SSE
STARLINK-1216 3.5 20:36:34 10° WNW 20:40:43 88° SSW 20:41:24 62° ESE
Cosmos 1825 3.7 20:38:32 10° NNE 20:41:04 24° NE 20:41:04 24° NE
Terra 2.7 20:42:27 31° ENE 20:43:00 32° ENE 20:47:13 10° N
ATLAS 5 CENTAUR R/B 1.9 20:39:10 10° SW 20:43:23 68° NW 20:48:13 10° NE
Abrixas rocket 3.7 20:41:21 10° W 20:43:05 25° WSW 20:43:05 25° WSW
Cosmos 1959 Rocket 4.4 20:38:06 10° N 20:44:28 86° E 20:47:43 31° S
STARLINK-1237 3.4 20:41:31 10° WNW 20:45:41 84° SSW 20:46:09 69° SE
Cosmos 2151 3.6 20:46:06 10° N 20:49:51 40° ENE 20:49:51 40° ENE
Cosmos 2058 2.8 20:46:02 10° N 20:50:10 87° W 20:50:47 64° S
Cosmos 1954 Rocket 4.1 20:45:16 10° SSW 20:50:30 76° WNW 20:55:45 10° NNE
STARLINK-1202 3.4 20:46:31 10° WNW 20:50:41 80° SSW 20:50:57 74° SSE
Cosmos 192 4.3 20:45:48 10° NNW 20:50:47 83° WSW 20:52:10 48° SSE
RESURS DK-1 2.9 20:49:11 10° NNW 20:53:11 44° NE 20:53:17 44° ENE
SPOT 1/Viking Rocket 3.5 20:52:37 48° SSE 20:54:07 79° ENE 20:59:23 10° NNW
Cosmos 1300 3.7 20:52:16 19° SW 20:54:43 45° WNW 20:58:25 10° N
Cosmos 1741 Rocket 4.1 20:54:59 51° ESE 20:55:21 52° ESE 21:00:32 10° NNE
Cosmos 1076 Rocket 3.6 20:53:57 10° NNW 20:58:14 71° W 20:59:02 55° SSW
SL-4 R/B 2.0 20:55:10 10° W 20:58:16 61° NW 20:58:16 61° NW
In-Cosmos 22 Rocket 4.5 20:53:53 10° NNW 20:59:42 70° W 21:02:23 33° S
Cosmos 2208 Rocket 4.3 20:54:57 10° NNW 21:00:02 51° ENE 21:00:47 47° E
STARLINK-1246 3.6 20:56:30 10° WNW 21:00:32 71° SW 21:00:32 71° SW
Cosmos 2082 Rocket 4.3 21:03:59 13° ENE 21:03:59 13° ENE 21:04:47 10° ENE
STARLINK-1203 3.7 20:57:20 10° WNW 21:01:25 66° SW 21:01:25 66° SW
STARLINK-1224 3.7 21:01:28 10° WNW 21:05:18 64° WSW 21:05:18 64° WSW
Cosmos 1763 Rocket 3.4 21:04:25 10° NNW 21:09:39 84° WSW 21:10:29 63° S
STARLINK-1225 3.9 21:06:28 10° WNW 21:10:06 57° WSW 21:10:06 57° WSW
Cosmos 1833 Rocket 3.9 21:13:44 26° ENE 21:13:44 26° ENE 21:16:41 10° NE
Cosmos 489 Rocket 4.4 21:06:59 10° NNW 21:13:14 79° ENE 21:14:41 55° SE
STARLINK-1230 4.2 21:11:27 10° WNW 21:14:53 51° WSW 21:14:53 51° WSW
BREEZE M DEB (TANK) 3.5 21:12:55 10° WSW 21:16:56 69° SSE 21:30:34 10° ENE
Cosmos 1814 Rocket 4.1 21:13:41 10° NNW 21:19:01 62° ENE 21:19:27 60° E
Cosmos 540 Rocket 3.5 21:13:56 10° NNW 21:19:05 62° ENE 21:19:20 62° ENE
Cosmos 1821 Rocket 4.0 21:13:00 10° N 21:19:22 67° ENE 21:20:35 55° SE
Cosmos-2242 3.5 21:21:21 50° NE 21:21:21 50° NE 21:24:43 10° NNE
STARLINK-1243 4.4 21:16:26 10° WNW 21:19:39 45° WSW 21:19:39 45° WSW
COSMOS 2406 3.1 21:20:59 63° ESE 21:20:59 63° ESE 21:26:34 10° NE
Meteor 2-10 Rocket 3.4 21:23:21 70° E 21:23:21 70° E 21:28:45 10° NNE
Cosmos 1934 Rocket 4.3 21:18:02 10° N 21:24:04 46° ENE 21:24:38 45° E
Iridium 4 Rocket 3.8 21:20:12 10° NNW 21:24:13 45° W 21:24:45 42° WSW
USA 234 3.1 21:19:27 10° ENE 21:26:02 76° SE 21:32:34 10° SW
USA 32 4.0 21:25:26 10° N 21:30:41 77° W 21:31:15 68° SSW
Cosmos 1408 4.0 21:34:07 10° NNW 21:36:38 37° NW 21:36:38 37° NW
CZ-4C R/B 3.1 21:32:52 10° NW 21:39:46 64° NE 21:42:00 47° E
Cosmos 2369 3.5 21:34:10 10° NNW 21:39:52 84° ENE 21:40:06 81° ESE
Cosmos 1850 Rocket 4.2 21:39:34 53° WSW 21:40:38 69° WNW 21:45:49 10° NNE
CARTOSAT-1 4.2 21:43:22 50° WNW 21:43:22 50° WNW 21:47:12 10° NNW
ASTEX 1 3.8 21:44:36 56° NE 21:44:36 56° NE 21:48:48 10° N
Cosmos 1697 Rocket 2.5 21:39:56 10° NNW 21:45:39 87° WSW 21:45:47 85° S
Cosmos 1356 Rocket 4.2 21:46:43 51° NNW 21:46:43 51° NNW 21:50:10 10° N
Cosmos 841 Rocket 3.5 21:41:42 10° NNW 21:46:53 73° W 21:46:53 73° W
Resurs 01 Rocket 4.4 21:47:29 10° WSW 21:48:47 11° W 21:50:05 10° WNW
Mayak 0.6 21:46:05 10° NNE 21:47:46 23° NNE 21:47:46 23° NNE
Okean 3 Rocket 4.3 21:46:18 10° NNW 21:50:04 50° WNW 21:50:04 50° WNW
ATLAS CENTAUR R/B 2.9 21:50:41 10° NW 21:52:56 32° NW 21:52:56 32° NW
Cosmos 1766 Rocket 4.3 21:51:19 10° NNW 21:54:58 50° NW 21:54:58 50° NW
SL-16 R/B 3.4 21:58:40 10° NNW 22:03:41 31° NE 22:04:14 30° ENE
Cosmos 1455 4.1 22:05:04 29° NW 22:05:04 29° NW 22:07:33 10° N
Cosmos 2360 Rocket 4.2 22:02:48 10° N 22:06:44 19° NE 22:08:30 17° ENE
ERS-1 Rocket 4.2 22:07:19 32° WSW 22:07:36 32° W 22:12:07 10° NNW
Meteor 2-3 Rocket 3.8 22:05:33 10° NNW 22:11:01 78° NW 22:11:01 78° NW
Cosmos 2322 Rocket 3.5 22:07:08 10° NNW 22:12:06 30° NE 22:12:34 30° NE
SPOT 5 4.2 22:13:27 28° WNW 22:13:27 28° WNW 22:16:36 10° NW
Cosmos 1980 Rocket 2.3 22:09:16 10° NNW 22:14:19 73° NNW 22:14:19 73° NNW
Cosmos 1825 4.5 22:13:59 10° NNW 22:15:53 22° NW 22:15:53 22° NW
Terra 3.1 22:21:20 35° WNW 22:21:20 35° WNW 22:25:06 10° NNW
ATLAS 5 CENTAUR R/B 4.1 22:25:23 10° WNW 22:28:59 22° NNW 22:32:58 10° NNE
Thor Agena Rocket 4.2 22:35:53 10° NNE 22:39:38 50° N 22:39:38 50° N
Cosmos 2278 4.5 22:36:28 10° NW 22:40:53 44° WNW 22:40:53 44° WNW
Cosmos 2082 Rocket 2.7 22:45:47 54° NNE 22:45:47 54° NNE 22:50:08 10° NNE
Cosmos 1833 Rocket 3.4 22:55:21 48° WNW 22:55:26 48° NW 23:00:56 10° NNE
Cosmos 2344 4.3 22:46:13 10° NW 22:55:42 77° SW 22:58:33 58° SSE
Cosmos 2221 4.4 22:58:41 29° N 22:58:41 29° N 23:00:57 10° N
Cosmos 1727 Rocket 4.2 22:58:39 65° NE 22:58:39 65° NE 23:04:03 10° NNE
Cosmos 2219 Rocket 4.3 23:01:15 10° N 23:05:15 19° NE 23:07:20 16° ENE
Cosmos 1802 Rocket 4.4 23:02:38 10° N 23:07:59 53° NE 23:07:59 53° NE
USA 234 3.8 23:02:34 10° ENE 23:08:56 56° NNW 23:15:18 10° W
Cosmos 2100 Rocket 4.2 23:07:35 10° N 23:12:57 66° NNE 23:12:57 66° NNE
Cosmos 2173 Rocket 4.2 23:16:45 10° N 23:21:50 64° N 23:21:50 64° N
Mayak 1.2 23:22:23 10° NNW 23:24:21 18° NW 23:24:21 18° NW
CZ-4C R/B 3.6 23:21:34 10° NW 23:27:10 40° W 23:27:10 40° W
MOS 1-B Rocket 4.3 23:41:00 10° NNE 23:46:30 73° NE 23:46:30 73° NE
SL-16 R/B 3.3 23:42:34 10° NW 23:46:05 37° NW 23:46:05 37° NW
Cosmos 2360 Rocket 3.0 23:46:07 10° NNW 23:50:15 49° N 23:50:15 49° N
